Location: Neuvy Saint Sepulchre
(46.5953°N, 1.8122°E)
Time: 16:21:11
(UTC+02:00)

ISS - Pass Details

Date: 10 May 2026
Orbit: 414 x 424 km, 51.6° (Epoch: 21 May)

Event Time Altitude Azimuth Distance (km) Brightness Sun altitude
Rises 22:27:12 0° 238° (WSW) 2,340 0.3 -11.2°
Reaches altitude 10° 22:29:17 10° 237° (WSW) 1,481 -0.8 -11.5°
Maximum altitude 22:32:36 77° 151° (SSE) 429 -3.9 -11.9°
Drops below altitude 10° 22:35:56 10° 65° (ENE) 1,491 -1.2 -12.3°
Sets 22:38:02 0° 64° (ENE) 2,357 -0.2 -12.6°
